Время (UTC), дата Ветер
(°,м/с) 
Видим.   Явления Облачность Т
(°С)
Тd
(°С)
f(%) Тe
(°С)
Pmin
(гПа)
dP
(гПа)
Po
(мм)
O2
(г/м3)
Тmin Tmax R s Состояние
почвы
00 16.06.15 210 (ЮЗ) 10 км    9/9 1000 м 
[Sc]
+19.5 +17.3 87 +34  1009.7  -0.3  755  280           
03 16.06.15 тихо ()   10 км    9/1 1000 м средняя 
[Sc diur, vesp|Ac trans]
+19.3 +16.4 83 +30  1009.3  -0.4  754  280  +18.3    0.3    влажная 
06 16.06.15 210 (ЮЗ) 10 км    10/10 1000 м 
[Sc]
+23.4 +17.8 71 +37  1009  -0.3  754  276           
09 16.06.15 270 (З) 10 км    10/10 1000 м кучево-дожд. 
[Cb cap]
+24.6 +16.4 60 +36  1009  754  275           
12 16.06.15 250 (З) 10 км    9/6 1000 м средняя 
[Cu Sc|Ac trans]
+27.2 +16 50 +37  1008.3  -0.7  754  273           
15 16.06.15 150 (ЮВ) 4000 м  гроза, ливневой дождь  10/10 600 м кучево-дожд. 
[Cb cap]
+19.3 +18 92 +35  1009.6  1.1  755  280    +28     
18 16.06.15 200 (Ю) 10 км  в посл. час ливневой дождь{гроза}  10/10 600 м кучево-дожд. 
[Cb cap]
+19.7 +18.3 92 +36  1008.7  -0.9  754  279           
21 16.06.15 210 (ЮЗ) 10 км    10/8 1000 м средняя 
[Sc|Ac und]
+20 +18.4 90 +35  1008.5  -0.2  754  279           
00 17.06.15 тихо ()   10 км    10/10 1000 м 
[Sc]
+20.3 +18.4 89 +35  1008.3  -0.2  754  278           
03 17.06.15 140 (ЮВ) 10 км    10/10 1000 м кучево-дожд. 
[Cb cap]
+19.6 +17.2 86 +34  1008.4  0.1  754  279  +19.1      влажная 
06 17.06.15 120 (ЮВ) 10 км    10/5 1000 м кучево-дожд., средняя, верхняя 
[Cb cap|Ac trans|Cc]
+21.1 +17.5 80 +34  1008.3  0.1  754  278           
09 17.06.15 070 (В) 4000 м  слаб. ливневой дождь  10/6 1000 м кучево-дожд., средняя, верхняя 
[Cb cap|Ac trans|Ci fib]
+23.7 +17.2 67 +36  1008.2  0.1  754  276           
12 17.06.15 150 (ЮВ) 10 км  гроза без осадков{ливн. осадки}  10/8 1000 м кучево-дожд., средняя 
[Cb cap|Ac und]
+24.5 +16 59 +35  1007.3  -0.9  753  275           
15 17.06.15 310 (СЗ) 10 км  {гроза, ливн. осадки}  10/5 1000 м кучево-дожд., средняя, верхняя 
[Cb cap|Ac trans|Ci fib]
+21.2 +18.7 86 +37  1006.8  -0.4  753  277    +25.4     
18 17.06.15 тихо ()   10 км  {гроза, ливн. осадки}  10/10 1000 м кучево-дожд. 
[Cb cap]
+21.2 +18.7 86 +37  1007.8  0.9  753  277           
21 17.06.15 200 (Ю) 10 км    8/4 1000 м кучево-дожд., средняя, верхняя 
[Cb cap|Ac trans|Ci fib]
+20.7 +16.5 77 +32  1007.5  -0.3  753  278           
00 18.06.15 230 (ЮЗ) 10 км    6/3 1000 м верхняя 
[Sc|Ci fib]
+19.5 +17 85 +33  1007.3  -0.2  753  279           
03 18.06.15 тихо ()   10 км    3/0 средняя 
[Ac trans]
+19.4 +17.4 88 +32  1007.2  0.1  753  279  +18.4        влажная 
06 18.06.15 210 (ЮЗ) 10 км    3/3 1000 м 
[Cu Sc]
+24.6 +17.1 63 +37  1007.5  0.4  753  275           
09 18.06.15 170 (Ю) 10 км    9/5 1000 м средняя, верхняя 
[Cu med, cong|Ac trans|Ci fib]
+27.2 +15.8 50 +37  1006.9  -0.6  753  272           
12 18.06.15 210 (ЮЗ) 10 км    9/1 1000 м средняя 
[Cu hum|Ac trans]
+26.6 +16.9 55 +39  1006.5  -0.3  752  273           
15 18.06.15 230 (ЮЗ) 10 км    8/1 1000 м средняя 
[Sc|Ac trans]
+26.5 +15.2 50 +35  1006.1  -0.4  752  273    +27.6       
18 18.06.15 тихо ()   10 км    1/1 1000 м 
[Sc diur, vesp]
+23.3 +16.8 67 +35  1006.9  0.8  753  276           
21 18.06.15 тихо ()   10 км    4/0 средняя, верхняя 
[Ac trans|Ci fib]
+20.9 +17.4 80 +34  1006.1  -0.9  752  278           
00 19.06.15 тихо ()   10 км    4/0 средняя, верхняя 
[Ac trans|Ci fib]
+19.1 +17.6 91 +33  1005  -1.1  751  279           
03 19.06.15 тихо ()   10 км    3/0 верхняя 
[Ci fib]
+19.7 +17.5 87 +33  1005.2  0.2  751  278  +18.4        влажная 
06 19.06.15 070 (В) 10 км    6/0 средняя, верхняя 
[Ac trans|Ci fib]
+26.4 +17.8 59 +40  1005  0.1  751  272           
09 19.06.15 100 (В) 10 км    10/1 1000 м средняя, верхняя 
[Cu hum|Ac trans|Ci fib]
+29.2 +16.2 45 +40  1003.8  -1.2  750  270           
12 19.06.15 150 (ЮВ) 10 км    9/8 1000 м кучево-дожд., средняя 
[Cb cap|Ac trans]
+29 +16.8 48 +41  1003.6  -0.2  750  270           
15 19.06.15 070 (В) 10 км    10/10 1000 м кучево-дожд. 
[Cb cap]
+27.2 +14.8 47 +36  1003.2  -0.4  750  272    +30.3       
18 19.06.15 070 (В) 10 км    6/3 1000 м кучево-дожд., средняя, верхняя 
[Cb cap|Ac trans|Ci fib]
+23.6 +15.4 60 +33  1003.9  0.6  750  275           
21 19.06.15 030 (СВ) 10 км    10/0 средняя, верхняя 
[Ac trans|Ci fib]
+21.1 +15.6 71 +31  1004.4  0.4  751  277           
00 20.06.15 220 (ЮЗ) 10 км    10/0 средняя, верхняя 
[Ac trans|Cc]
+20.7 +17.6 82 +34  1004.9  0.6  751  277           
03 20.06.15 210 (ЮЗ) 10 км    10/3 1000 м средняя, верхняя 
[Sc|Ac trans|Ci fib]
+20.6 +17.9 85 +35  1005.7  0.7  752  278  +20.1        сухая 
06 20.06.15 200 (Ю) 10 км    8/4 1000 м средняя 
[Sc|Ac trans]
+23.7 +17.8 70 +38  1006.3  0.7  752  275           
09 20.06.15 180 (Ю) 10 км    5/3 1000 м средняя, верхняя 
[Cu med, cong|Ac trans|Ci fib]
+27.9 +15.2 46 +37  1006.3  752  272           
12 20.06.15 340 (С) 10 км  {гроза}  8/5 1000 м кучево-дожд., верхняя 
[Cb cap|Ci fib]
+28.4 +16.4 48 +39  1006  -0.2  752  271           
15 20.06.15 360 (С) 1{11}  4000 м  в посл. час гроза{ливн. осадки}  8/5 1000 м кучево-дожд., средняя, верхняя 
[Cb cap|Ac trans|Ci fib]
+22.4 +20.1 87 +41  1007.2  1.2  753  275    +28.7     
18 20.06.15 тихо ()   10 км  {гроза, ливн. осадки}  3/3 1000 м 
[Sc diur, vesp]
+20.6 +18.5 88 +36  1007.7  0.4  753  278           
21 20.06.15 тихо ()   10 км    3/3 1000 м 
[Sc]
+19.8 +18 89 +34  1008.3  0.6  754  279           
00 21.06.15 тихо ()   10 км    6/6 1000 м 
[Sc]
+19.5 +17.6 89 +33  1009.3  754  280           
03 21.06.15 тихо ()   10 км    10/6 1000 м кучево-дожд., средняя, верхняя 
[Cb cap|Ac trans|Ci fib]
+19.9 +17.7 87 +33  1009.8  0.5  755  279  +19.5    0.3    влажная 
06 21.06.15 190 (Ю) 10 км  в посл. час ливневой дождь  8/3 1000 м кучево-дожд., средняя 
[Cb cap|Ac trans]
+22.5 +17.9 75 +36  1010.2  0.4  755  277           
09 21.06.15 170 (Ю) 10 км    4/4 1000 м 
[Cu hum]
+26.8 +17.5 57 +40  1009.5  -0.6  755  273           
12 21.06.15 240 (ЮЗ) 10 км    8/8 1000 м 
[Cu med, cong]
+29.3 +15.8 44 +39  1009.1  -0.4  754  271           
15 21.06.15 050 (СВ) 10 км    9/8 1000 м кучево-дожд., верхняя 
[Cb cap|Ci fib]
+25.3 +16 56 +36  1010  0.9  755  275    +29.8       
18 21.06.15 тихо ()   10 км  {гроза, ливн. осадки}  1/1 1000 м 
[Sc diur, vesp]
+20.4 +18.9 91 +36  1010.8  0.7  755  279           
21 21.06.15 тихо ()   10 км    ясно 
+19.7 +18.2 91 +34  1010.6  -0.2  755  280           
00 22.06.15 тихо ()   10 км    ясно 
+19 +17.6 92 +32  1011.3  0.7  756  281           
03 22.06.15 260 (З) 10 км    ясно 
+19.3 +17.9 92 +35  1011.4  0.1  756  280  +18.4      влажная 
06 22.06.15 280 (З) 10 км    9/1 1000 м средняя, верхняя 
[Cu med, cong|Ac trans|Cc]
+25.1 +18.9 69 +41  1011.9  0.6  756  275           
09 22.06.15 100 (В) 10 км    8/3 1000 м средняя 
[Cu med, cong|Ac trans]
+28.1 +15.6 47 +38  1011.8  -0.1  756  273           
12 22.06.15 310 (СЗ) 10 км    9/9 1000 м кучево-дожд. 
[Cb cap]
+29.5 +17.4 48 +42  1011.3  -0.5  756  271           
15 22.06.15 220 (ЮЗ) 10 км  в посл. час гроза{ливн. осадки}  9/9 600 м кучево-дожд. 
[Cb cap]
+25.4 +18.6 66 +41  1011.7  0.4  756  274    +30.3  0.0     
18 22.06.15 010 (С) 10 км  {гроза, ливн. осадки}  1/0 средняя 
[Ac trans]
+22.7 +19 80 +39  1012.5  0.8  757  277           
21 22.06.15 тихо ()   10 км    5/5 1000 м 
[Sc]
+20.8 +18.3 86 +35  1012.5  757  279           
00 23.06.15 тихо ()   10 км    9/9 1000 м 
[Sc]
+20.2 +18.2 88 +35  1012.5  757  280           
03 23.06.15 300 (СЗ) 10 км    10/10 1000 м 
[Sc]
+21.2 +18.8 86 +37  1012.6  0.1  757  279  +20.1    0.3    влажная 
06 23.06.15 100 (В) 10 км    9/4 1000 м средняя, верхняя 
[Sc|Ac trans|Ci fib]
+24.8 +18.4 68 +40  1012.1  -0.4  757  275           
09 23.06.15 030 (СВ) 10 км    9/8 1000 м кучево-дожд., средняя 
[Cb cap|Ac trans]
+27.2 +18.7 60 +43  1011.2  -0.9  756  273           
12 23.06.15 тихо ()   10 км  в посл. час гроза{ливн. осадки}  9/4 1000 м кучево-дожд., средняя 
[Cb cap|Ac trans]
+25.4 +19.6 70 +43  1010.7  -0.6  755  274           
15 23.06.15 050 (СВ) 10 км    9/8 1000 м средняя 
[Sc|Ac trans]
+25.9 +19.7 69 +44  1010.2  -0.5  755  273    +28.4     
18 23.06.15 030 (СВ) 4000 м  гроза, ливневой дождь  10/10 600 м кучево-дожд. 
[Cb cap]
+20.8 +19.8 94 +39  1010.8  0.5  755  278           
21 23.06.15 020 (С) 4000 м  гроза, ливневой дождь  10/10 600 м кучево-дожд. 
[Cb cap]
+17.9 +17.1 95 +31  1012.1  1.2  756  282           
00 24.06.15 130 (ЮВ) 4000 м  слаб. ливневой дождь, в посл. час гроза  10/10 600 м кучево-дожд. 
[Cb cap]
+18.8 +17.5 92 +33  1012.5  0.4  757  281           
03 24.06.15 020 (С) 10 км  {ливн. осадки}  9/3 1000 м верхняя 
[Sc|Ci fib]
+19.1 +17.5 90 +34  1012.1  -0.3  756  281  +17.8    78    затоплена
водой 
06 24.06.15 070 (В) 10 км  {ливн. осадки}  9/1 1000 м средняя, верхняя 
[Sc|Ac trans|Ci fib]
+23.5 +17.5 69 +37  1012.5  0.4  757  277           
09 24.06.15 050 (СВ) 10 км    6/1 1000 м средняя 
[Sc|Ac trans]
+27.1 +16.6 53 +38  1011.3  -1.1  756  274           
12 24.06.15 310 (СЗ) 10 км  {ливн. осадки}  9/8 1000 м кучево-дожд., средняя 
[Cb cap|Ac trans]
+26.3 +18.9 64 +42  1010.2  -1.1  755  273           
15 24.06.15 010 (С) 10 км    9/9 1000 м кучево-дожд. 
[Cb cap]
+25.8 +19.1 67 +42  1009.6  -0.6  755  273    +28.3  0.3     
18 24.06.15 300 (СЗ) 10 км  гроза, ливневой дождь  9/9 1000 м кучево-дожд. 
[Cb cap]
+23.8 +19.4 76 +41  1008.9  -0.7  754  275           
21 24.06.15 310 (СЗ) 4000 м  в посл. час ливневой дождь{гроза}  10/6 1000 м кучево-дожд., средняя 
[Cb cap|Ac trans]
+21.9 +19.2 85 +39  1008.8  0.1  754  277           
00 25.06.15 090 (В) 10 км  слаб. ливневой дождь{гроза}  10/8 600 м кучево-дожд., средняя 
[Cb cap|Ac trans]
+19 +18.1 95 +35  1009.1  0.2  754  280           
03 25.06.15 230 (ЮЗ) 10 км  слаб. ливневой дождь  10/10 600 м кучево-дожд. 
[Cb cap]
+18.8 +17.9 95 +33  1008.1  -1.1  753  280  +18.4    22    мокрая 
06 25.06.15 330 (СЗ) 10 км  в посл. час ливневой дождь  10/4 300 м кучево-дожд., средняя, верхняя 
[Cb cap|Ac trans|Ci fib]
+21.2 +19.6 91 +39  1007.6  -0.4  753  277           
09 25.06.15 110 (В) 10 км    10/8 600 м кучево-дожд., средняя 
[Cb cap|Ac und]
+24.8 +18 66 +39  1007  -0.5  753  274           
12 25.06.15 160 (Ю) 10 км    9/5 1000 м кучево-дожд., средняя, верхняя 
[Cb cap|Ac trans|Ci fib]
+25.3 +18.4 66 +40  1006.4  -0.6  752  273           
15 25.06.15 090 (В) 10 км    10/4 1000 м кучево-дожд., средняя, верхняя 
[Cb cap|Ac trans|Ci fib]
+24 +18.7 72 +40  1005.9  -0.5  752  274    +26.3     
18 25.06.15 140 (ЮВ) 10 км    5/3 1000 м кучево-дожд., верхняя 
[Cb cap|Ci fib]
+22.6 +19.2 81 +39  1006.3  0.4  752  275           
21 25.06.15 130 (ЮВ) 10 км    10/4 1000 м верхняя 
[Sc|Ci fib]
+21.7 +17.1 75 +34  1005.1  -1.2  751  277           
00 26.06.15 110 (В) 10 км    10/5 1000 м средняя, верхняя 
[Sc|Ac trans|Ci fib]
+21.4 +16.7 75 +33  1005.3  0.2  751  277           
03 26.06.15 140 (ЮВ) 10 км    10/3 1000 м средняя, верхняя 
[Sc|Ac trans|Ci fib]
+21.4 +16.9 76 +33  1004.6  -0.8  751  277  +20.6        мокрая 
06 26.06.15 170 (Ю) 10 км    9/4 1000 м средняя 
[Sc|Ac trans]
+24.1 +17.4 66 +37  1005.3  0.8  751  274           
09 26.06.15 180 (Ю) 10 км  {ливн. осадки}  10/8 1000 м кучево-дожд., средняя, верхняя 
[Cb cap|Ac trans|Ci fib]
+23.9 +16.8 64 +36  1005.6  0.3  752  275           
12 26.06.15 200 (Ю) 10 км  {ливн. осадки}  10/6 1000 м кучево-дожд., средняя, верхняя 
[Cb cap|Ac trans|Ci fib]
+25.6 +17.1 59 +38  1005.7  0.2  752  273           
15 26.06.15 180 (Ю) 10 км    6/4 1000 м средняя, верхняя 
[Sc diur, vesp|Ac trans|Ci fib]
+25.3 +18 64 +40  1005.3  -0.5  751  273    +26.7  0.0     
18 26.06.15 180 (Ю) 10 км    8/1 1000 м средняя 
[Sc|Ac trans]
+22.5 +17 71 +35  1006.2  0.9  752  276           
21 26.06.15 200 (Ю) 10 км    1/0 средняя 
[Ac trans]
+20.3 +16.7 80 +32  1005.9  -0.3  752  278           
00 27.06.15 130 (ЮВ) 10 км    3/0 средняя 
[Ac trans]
+20 +17.1 83 +32  1005.5  -0.4  752  278           
03 27.06.15 230 (ЮЗ) 10 км    6/0 средняя, верхняя 
[Ac trans|Cc]
+20.7 +16.8 78 +33  1005.8  0.3  752  278  +19.6        влажная 
06 27.06.15 190 (Ю) 10 км    10/6 1000 м средняя, верхняя 
[Cu Sc|Ac trans|Ci fib]
+24.4 +16.7 62 +36  1006.4  0.6  752  275           
09 27.06.15 260 (З) 10 км  {ливн. осадки}  9/9 600 м кучево-дожд. 
[Cb cap]
+23.7 +18.4 72 +39  1006.5  0.1  752  275           
12 27.06.15 200 (Ю) 10 км  {ливн. осадки}  10/6 1000 м кучево-дожд., средняя, верхняя 
[Cb cap|Ac trans|Ci fib]
+25.7 +17.3 60 +39  1006.2  -0.3  752  273           
15 27.06.15 200 (Ю) 2{10}  10 км    10/6 1000 м кучево-дожд., верхняя 
[Cb cap|Ci ing]
+25.1 +16.1 57 +36  1005.9  -0.3  752  274    +27.2  0.8     
18 27.06.15 200 (Ю) 10 км    9/0 средняя, верхняя 
[Ac trans|Ci fib]
+21.7 +16.8 74 +34  1006.7  0.8  752  277           
21 27.06.15 190 (Ю) 10 км    3/0 средняя 
[Ac trans]
+20 +15.6 76 +30  1007.1  0.4  753  279           
00 28.06.15 190 (Ю) 10 км    ясно 
+19.5 +15.8 79 +31  1006.1  -1.1  752  279           
03 28.06.15 160 (Ю) 10 км    ясно 
+19.2 +16.2 83 +32  1006.5  0.4  752  280  +18.8        влажная 
06 28.06.15 190 (Ю) 10 км    1/1 1000 м 
[Sc]
+24.3 +16.7 63 +36  1006.3  0.1  752  275           
09 28.06.15 180 (Ю) 10 км    9/8 1000 м кучево-дожд., средняя 
[Cb cap|Ac trans]
+27 +16 51 +37  1006.4  0.1  752  272           
12 28.06.15 190 (Ю) 10 км    10/8 1000 м кучево-дожд., средняя 
[Cb cap|Ac trans]
+24.4 +16.4 61 +35  1007.4  753  275           
15 28.06.15 190 (Ю) 10 км  {ливн. осадки}  8/8 1000 м кучево-дожд., средняя 
[Cb cap|Ac trans]
+21.5 +17.8 79 +35  1008.2  0.8  754  277    +27.8  0.8     
18 28.06.15 190 (Ю) 10 км  {ливн. осадки}  6/6 1000 м 
[Sc diur, vesp]
+20.5 +16.7 79 +32  1009.7  1.5  755  279           
21 28.06.15 200 (Ю) 10 км    4/1 1000 м средняя 
[Sc|Ac trans]
+19.1 +14.9 77 +29  1010.7  755  281           
00 29.06.15 190 (Ю) н/о    н/о 
+18.5 +15 80 +28  1010.6  -0.1  755  282           
03 29.06.15 200 (Ю) н/о    н/о 
+18.9 +15 78 +28  1011  0.4  756  282  +18.2         
06 29.06.15 200 (Ю) 10 км    10/3 1000 м кучево-дожд., верхняя 
[Cb cap|Ci]
+22 +14.5 62 +30  1012  756  279           
09 29.06.15 200 (Ю) 10 км    10/8 1000 м средняя 
[Sc diur, vesp|Ac trans]
+23.5 +14.1 56 +30  1012.9  0.9  757  278           
12 29.06.15 210 (ЮЗ) 10 км    6/6 1000 м 
[Cu med, cong]
+26.6 +11.2 38 +29  1012.9  757  276           
15 29.06.15 200 (Ю) 10 км    3/3 1000 м 
[Cu hum]
+24.9 +10.1 39 +26  1013.6  0.7  758  278    +26.8       
18 29.06.15 200 (Ю) 10 км    ясно 
+20.6 +13.3 63 +26  1014.7  1.1  758  282           
21 29.06.15 тихо ()   10 км    ясно 
+17.8 +13.9 78 +24  1015.1  0.4  759  284           
00 30.06.15 190 (Ю) 10 км    ясно 
+16.7 +14.5 87 +26  1015  -0.2  759  285           
03 30.06.15 200 (Ю) 10 км    3/3 1000 м 
[Sc]
+17.9 +14.4 80 +26  1015  759  284  +16.6        влажная 
06 30.06.15 210 (ЮЗ) 10 км    1/1 1000 м 
[Sc diur, vesp]
+23 +12.8 53 +28  1014.8  0.1  758  279           
09 30.06.15 180 (Ю) 10 км    3/3 1000 м 
[Sc diur, vesp]
+25.9 +12 42 +30  1014.1  -0.7  758  277           
12 30.06.15 200 (Ю) 10 км    8/8 1000 м 
[Cu hum]
+27.1 +11.8 39 +30  1014  758  276           
15 30.06.15 240 (ЮЗ) 10 км    8/4 1000 м верхняя 
[Cu med, cong|Ci fib]
+26.6 +12.6 42 +31  1014.2  0.2  758  276    +28.6       
18 30.06.15 240 (ЮЗ) 10 км    8/4 1000 м кучево-дожд., средняя 
[Cb cap|Ac trans]
+22.8 +15.3 63 +32  1015.6  1.3  759  279           
21 30.06.15 210 (ЮЗ) 10 км    9/9 1000 м 
[Sc]
+21.3 +15.9 71 +31  1017.1  1.5  760  281           
00 01.07.15 180 (Ю) 10 км    3/3 1000 м 
[Sc]
+19 +15.3 79 +30  1017.3  0.2  760  283           
03 01.07.15 180 (Ю) 10 км    3/3 1000 м 
[Sc]
+19.1 +15.6 80 +30  1018.2  0.9  761  283  +17.9        влажная 
06 01.07.15 220 (ЮЗ) 10 км    5/5 1000 м 
[Cu med, cong]
+23.3 +14.5 58 +31  1018.5  0.3  761  280           
09 01.07.15 270 (З) 10 км    4/4 1000 м 
[Cu med, cong]
+26.6 +13.6 45 +33  1018.6  0.2  761  277           
Время (UTC), дата Ветер
(°,м/с) 
Видим.   Явления Облачность Т
(°С)
Тd
(°С)
f(%) Тe
(°С)
Pmin
(гПа)
dP
(гПа)
Po
(мм)
O2
(г/м3)
Тmin Tmax R s Состояние
почвы